| time (UTC) | temp F | wind direction | speed MPH | gust MPH | rain 1hr in | rain 24hr in | rain mn in | humidity % | barometer mb |
| 20260905115516 | 89 | 248 | 6.0 | 15.0 | 0.00 | 0.00 | 0.00 | 57 | 1016.9 |
| 20260905114516 | 89 | 203 | 9.0 | 15.0 | 0.00 | 0.00 | 0.00 | 57 | 1017.0 |
| 20260905113516 | 89 | 225 | 9.0 | 16.0 | 0.00 | 0.00 | 0.00 | 57 | 1017.1 |
| 20260905112516 | 90 | 203 | 6.0 | 16.0 | 0.00 | 0.00 | 0.00 | 54 | 1017.0 |
| 20260905111516 | 90 | 225 | 6.0 | 14.0 | 0.00 | 0.00 | 0.00 | 53 | 1017.0 |
| 20260905110536 | 90 | 203 | 7.0 | 14.0 | 0.00 | 0.00 | 0.00 | 53 | 1016.9 |
| 20260905105516 | 90 | 225 | 6.0 | 15.0 | 0.00 | 0.00 | 0.00 | 54 | 1016.9 |
| 20260905104536 | 89 | 203 | 8.0 | 15.0 | 0.00 | 0.00 | 0.00 | 57 | 1016.9 |
| 20260905103516 | 89 | 225 | 9.0 | 16.0 | 0.00 | 0.00 | 0.00 | 59 | 1016.9 |
| 20260905102516 | 89 | 203 | 8.0 | 19.0 | 0.00 | 0.00 | 0.00 | 59 | 1017.0 |
| 20260905101519 | 89 | 203 | 5.0 | 11.0 | 0.00 | 0.00 | 0.00 | 60 | 1017.2 |
| 20260905100515 | 88 | 203 | 7.0 | 17.0 | 0.00 | 0.00 | 0.00 | 60 | 1017.1 |
| 20260905095515 | 88 | 225 | 6.0 | 11.0 | 0.00 | 0.00 | 0.00 | 60 | 1017.3 |
| 20260905094515 | 88 | 203 | 6.0 | 14.0 | 0.00 | 0.00 | 0.00 | 58 | 1017.5 |
| 20260905093516 | 88 | 203 | 8.0 | 13.0 | 0.00 | 0.00 | 0.00 | 58 | 1017.5 |
| 20260905092516 | 88 | 225 | 5.0 | 11.0 | 0.00 | 0.00 | 0.00 | 59 | 1017.7 |
| 20260905091515 | 88 | 203 | 4.0 | 13.0 | 0.00 | 0.00 | 0.00 | 59 | 1017.7 |
| 20260905090516 | 87 | 203 | 4.0 | 8.0 | 0.00 | 0.00 | 0.00 | 59 | 1017.7 |
| 20260905085516 | 86 | 203 | 7.0 | 12.0 | 0.00 | 0.00 | 0.00 | 59 | 1017.6 |
| 20260905084515 | 87 | 203 | 6.0 | 12.0 | 0.00 | 0.00 | 0.00 | 60 | 1017.7 |
| 20260905083516 | 87 | 203 | 3.0 | 8.0 | 0.00 | 0.00 | 0.00 | 61 | 1017.6 |
| 20260905082535 | 87 | 203 | 3.0 | 6.0 | 0.00 | 0.00 | 0.00 | 62 | 1017.7 |
| 20260905081516 | 86 | 203 | 3.0 | 9.0 | 0.00 | 0.00 | 0.00 | 61 | 1017.8 |
| 20260905080535 | 86 | 203 | 3.0 | 6.0 | 0.00 | 0.00 | 0.00 | 59 | 1017.6 |
| 20260905075517 | 85 | 203 | 4.0 | 8.0 | 0.00 | 0.00 | 0.00 | 56 | 1017.7 |
| 20260905074516 | 85 | 180 | 2.0 | 5.0 | 0.00 | 0.00 | 0.00 | 50 | 1017.6 |
| 20260905073517 | 84 | 113 | 3.0 | 5.0 | 0.00 | 0.00 | 0.00 | 51 | 1017.7 |
| 20260905072515 | 83 | 135 | 2.0 | 4.0 | 0.00 | 0.00 | 0.00 | 50 | 1017.6 |
| 20260905071537 | 83 | 113 | 1.0 | 3.0 | 0.00 | 0.00 | 0.00 | 49 | 1017.5 |
| 20260905070537 | 83 | 0.0 | 1.0 | 0.00 | 0.00 | 0.00 | 50 | 1017.5 | |
| 20260905065517 | 82 | 180 | 1.0 | 3.0 | 0.00 | 0.00 | 0.00 | 50 | 1017.5 |
| 20260905064517 | 81 | 203 | 1.0 | 3.0 | 0.00 | 0.00 | 0.00 | 51 | 1017.5 |
| 20260905063517 | 80 | 0.0 | 0.0 | 0.00 | 0.00 | 0.00 | 52 | 1017.3 | |
| 20260905062517 | 79 | 0.0 | 2.0 | 0.00 | 0.00 | 0.00 | 55 | 1017.3 | |
| 20260905061517 | 77 | 113 | 1.0 | 3.0 | 0.00 | 0.00 | 0.00 | 55 | 1017.3 |
| 20260905060517 | 77 | 90 | 1.0 | 2.0 | 0.00 | 0.00 | 0.00 | 56 | 1017.2 |
| 20260905055517 | 75 | 90 | 2.0 | 3.0 | 0.00 | 0.00 | 0.00 | 59 | 1017.2 |
| 20260905054517 | 75 | 0.0 | 0.0 | 0.00 | 0.00 | 0.00 | 59 | 1017.1 | |
| 20260905053519 | 74 | 113 | 1.0 | 3.0 | 0.00 | 0.00 | 0.00 | 58 | 1017.0 |
| 20260905052517 | 73 | 90 | 1.0 | 4.0 | 0.00 | 0.00 | 0.00 | 57 | 1016.8 |
| 20260905051537 | 72 | 0.0 | 2.0 | 0.00 | 0.00 | 0.00 | 57 | 1016.8 | |
| 20260905050517 | 70 | 45 | 3.0 | 6.0 | 0.00 | 0.00 | 0.00 | 60 | 1016.8 |
| 20260905045537 | 70 | 23 | 2.0 | 3.0 | 0.00 | 0.00 | 0.00 | 59 | 1016.7 |
| 20260905044517 | 70 | 23 | 1.0 | 4.0 | 0.00 | 0.00 | 0.00 | 58 | 1016.8 |
| 20260905043517 | 70 | 0.0 | 3.0 | 0.00 | 0.00 | 0.00 | 57 | 1016.8 | |
| 20260905042517 | 69 | 23 | 4.0 | 5.0 | 0.00 | 0.00 | 0.00 | 60 | 1016.7 |
| 20260905041517 | 70 | 23 | 1.0 | 3.0 | 0.00 | 0.00 | 0.00 | 60 | 1016.7 |
| 20260905040517 | 69 | 0 | 2.0 | 3.0 | 0.00 | 0.00 | 0.00 | 61 | 1016.6 |
| 20260905035537 | 69 | 23 | 1.0 | 3.0 | 0.00 | 0.00 | 0.00 | 62 | 1016.7 |
| 20260905034517 | 70 | 0 | 1.0 | 3.0 | 0.00 | 0.00 | 0.00 | 62 | 1016.8 |
| 20260905033517 | 70 | 0.0 | 1.0 | 0.00 | 0.00 | 0.00 | 60 | 1016.8 | |
| 20260905032517 | 71 | 0.0 | 2.0 | 0.00 | 0.00 | 0.00 | 58 | 1016.6 | |
| 20260905031517 | 70 | 293 | 1.0 | 2.0 | 0.00 | 0.00 | 0.00 | 57 | 1016.4 |
| 20260905030517 | 71 | 0.0 | 1.0 | 0.00 | 0.00 | 0.00 | 56 | 1016.4 | |
| 20260905025517 | 71 | 338 | 1.0 | 4.0 | 0.00 | 0.00 | 0.00 | 56 | 1016.3 |
| 20260905024517 | 70 | 0 | 1.0 | 2.0 | 0.00 | 0.00 | 0.00 | 58 | 1016.2 |
| 20260905023517 | 70 | 0.0 | 1.0 | 0.00 | 0.00 | 0.00 | 59 | 1016.3 | |
| 20260905022537 | 70 | 0.0 | 1.0 | 0.00 | 0.00 | 0.00 | 60 | 1016.3 | |
| 20260905021517 | 71 | 23 | 1.0 | 3.0 | 0.00 | 0.00 | 0.00 | 59 | 1016.3 |
| 20260905020517 | 71 | 23 | 2.0 | 3.0 | 0.00 | 0.00 | 0.00 | 58 | 1016.2 |
| 20260905015537 | 72 | 45 | 1.0 | 2.0 | 0.00 | 0.00 | 0.00 | 56 | 1016.2 |
| 20260905014517 | 73 | 23 | 1.0 | 3.0 | 0.00 | 0.00 | 0.00 | 53 | 1016.2 |
| 20260905013517 | 73 | 0.0 | 1.0 | 0.00 | 0.00 | 0.00 | 52 | 1016.3 | |
| 20260905012537 | 73 | 23 | 3.0 | 6.0 | 0.00 | 0.00 | 0.00 | 53 | 1016.3 |
| 20260905011517 | 73 | 23 | 3.0 | 6.0 | 0.00 | 0.00 | 0.00 | 53 | 1016.2 |
| 20260905010517 | 73 | 23 | 1.0 | 2.0 | 0.00 | 0.00 | 0.00 | 53 | 1016.2 |
| 20260905005516 | 73 | 23 | 2.0 | 4.0 | 0.00 | 0.00 | 0.00 | 55 | 1016.4 |
| 20260905004517 | 72 | 23 | 3.0 | 5.0 | 0.00 | 0.00 | 0.00 | 56 | 1016.4 |
| 20260905003517 | 72 | 68 | 1.0 | 3.0 | 0.00 | 0.00 | 0.00 | 56 | 1016.3 |
| 20260905002516 | 72 | 45 | 1.0 | 3.0 | 0.00 | 0.00 | 0.00 | 54 | 1016.2 |
| 20260905001537 | 74 | 0.0 | 2.0 | 0.00 | 0.00 | 0.00 | 53 | 1016.4 | |
| 20260905000516 | 74 | 0 | 1.0 | 3.0 | 0.00 | 0.00 | 0.00 | 53 | 1016.4 |
| 20260904235517 | 75 | 45 | 1.0 | 2.0 | 0.00 | 0.00 | 0.00 | 51 | 1016.5 |
| 20260904234516 | 75 | 23 | 3.0 | 5.0 | 0.00 | 0.00 | 0.00 | 51 | 1016.4 |
| 20260904233517 | 74 | 45 | 3.0 | 6.0 | 0.00 | 0.00 | 0.00 | 53 | 1016.4 |
| 20260904232516 | 74 | 23 | 1.0 | 2.0 | 0.00 | 0.00 | 0.00 | 54 | 1016.4 |
| 20260904231537 | 75 | 23 | 1.0 | 2.0 | 0.00 | 0.00 | 0.00 | 52 | 1016.6 |
| 20260904230517 | 75 | 23 | 1.0 | 3.0 | 0.00 | 0.00 | 0.00 | 51 | 1016.6 |
| 20260904225516 | 74 | 23 | 2.0 | 3.0 | 0.00 | 0.00 | 0.00 | 52 | 1016.5 |
| 20260904224518 | 75 | 23 | 1.0 | 2.0 | 0.00 | 0.00 | 0.00 | 51 | 1016.5 |
| 20260904223516 | 75 | 0.0 | 1.0 | 0.00 | 0.00 | 0.00 | 50 | 1016.6 | |
| 20260904222516 | 76 | 0.0 | 3.0 | 0.00 | 0.00 | 0.00 | 49 | 1016.5 | |
| 20260904221517 | 75 | 23 | 4.0 | 7.0 | 0.00 | 0.00 | 0.00 | 50 | 1016.6 |
| 20260904220516 | 75 | 23 | 2.0 | 5.0 | 0.00 | 0.00 | 0.00 | 52 | 1016.5 |
| 20260904215517 | 75 | 0.0 | 2.0 | 0.00 | 0.00 | 0.00 | 53 | 1016.5 | |
| 20260904214517 | 76 | 338 | 1.0 | 3.0 | 0.00 | 0.00 | 0.00 | 55 | 1016.4 |
| 20260904213517 | 76 | 338 | 3.0 | 4.0 | 0.00 | 0.00 | 0.00 | 55 | 1016.4 |
| 20260904212517 | 77 | 23 | 1.0 | 3.0 | 0.00 | 0.00 | 0.00 | 52 | 1016.5 |
| 20260904211517 | 76 | 23 | 2.0 | 3.0 | 0.00 | 0.00 | 0.00 | 54 | 1016.6 |
| 20260904210517 | 77 | 338 | 2.0 | 3.0 | 0.00 | 0.00 | 0.00 | 56 | 1016.6 |
| 20260904205516 | 76 | 338 | 3.0 | 5.0 | 0.00 | 0.00 | 0.00 | 60 | 1016.6 |
| 20260904204517 | 76 | 315 | 2.0 | 3.0 | 0.00 | 0.00 | 0.00 | 64 | 1016.6 |
| 20260904203517 | 76 | 315 | 2.0 | 3.0 | 0.00 | 0.00 | 0.00 | 64 | 1016.6 |
| 20260904202516 | 76 | 293 | 2.0 | 3.0 | 0.00 | 0.00 | 0.00 | 64 | 1016.5 |
| 20260904201537 | 77 | 315 | 1.0 | 2.0 | 0.00 | 0.00 | 0.00 | 63 | 1016.7 |
| 20260904200537 | 77 | 0.0 | 2.0 | 0.00 | 0.00 | 0.00 | 61 | 1016.7 | |
| 20260904195516 | 77 | 0 | 1.0 | 2.0 | 0.00 | 0.00 | 0.00 | 61 | 1016.7 |
| 20260904194517 | 77 | 293 | 2.0 | 2.0 | 0.00 | 0.00 | 0.00 | 63 | 1016.6 |
| 20260904193517 | 78 | 315 | 1.0 | 2.0 | 0.00 | 0.00 | 0.00 | 60 | 1016.6 |
| 20260904192516 | 79 | 293 | 2.0 | 3.0 | 0.00 | 0.00 | 0.00 | 61 | 1016.5 |
| 20260904191516 | 79 | 338 | 2.0 | 4.0 | 0.00 | 0.00 | 0.00 | 58 | 1016.6 |
| 20260904190556 | 80 | 315 | 1.0 | 2.0 | 0.00 | 0.00 | 0.00 | 54 | 1016.5 |
| 20260904185516 | 80 | 293 | 1.0 | 3.0 | 0.00 | 0.00 | 0.00 | 57 | 1016.5 |
| 20260904184517 | 79 | 293 | 1.0 | 3.0 | 0.00 | 0.00 | 0.00 | 58 | 1016.4 |
| 20260904183517 | 78 | 315 | 1.0 | 4.0 | 0.00 | 0.00 | 0.00 | 69 | 1016.3 |
| 20260904182516 | 79 | 315 | 1.0 | 3.0 | 0.00 | 0.00 | 0.00 | 69 | 1016.2 |
| 20260904181517 | 79 | 270 | 1.0 | 3.0 | 0.00 | 0.00 | 0.00 | 68 | 1016.2 |
| 20260904180516 | 80 | 0.0 | 0.0 | 0.00 | 0.00 | 0.00 | 66 | 1015.9 | |
| 20260904175516 | 81 | 0.0 | 0.0 | 0.00 | 0.00 | 0.00 | 66 | 1015.9 | |
| 20260904174517 | 82 | 0.0 | 0.0 | 0.00 | 0.00 | 0.00 | 66 | 1015.8 | |
| 20260904173516 | 82 | 0.0 | 1.0 | 0.00 | 0.00 | 0.00 | 65 | 1015.7 | |
| 20260904172536 | 84 | 0.0 | 0.0 | 0.00 | 0.00 | 0.00 | 63 | 1015.6 | |
| 20260904171536 | 86 | 0.0 | 2.0 | 0.00 | 0.00 | 0.00 | 61 | 1015.7 | |
| 20260904170516 | 87 | 0.0 | 1.0 | 0.00 | 0.00 | 0.00 | 59 | 1015.6 | |
| 20260904165516 | 89 | 0.0 | 3.0 | 0.00 | 0.00 | 0.00 | 55 | 1015.6 | |
| 20260904164516 | 90 | 203 | 2.0 | 5.0 | 0.00 | 0.00 | 0.00 | 54 | 1015.4 |
| 20260904163516 | 90 | 203 | 2.0 | 5.0 | 0.00 | 0.00 | 0.00 | 52 | 1015.3 |
| 20260904162516 | 90 | 203 | 3.0 | 7.0 | 0.00 | 0.00 | 0.00 | 48 | 1015.3 |
| 20260904161516 | 91 | 203 | 4.0 | 10.0 | 0.00 | 0.00 | 0.00 | 46 | 1015.1 |
| 20260904160516 | 91 | 203 | 7.0 | 11.0 | 0.00 | 0.00 | 0.00 | 45 | 1015.2 |
| 20260904155537 | 91 | 203 | 6.0 | 12.0 | 0.00 | 0.00 | 0.00 | 43 | 1015.1 |
| 20260904154516 | 92 | 203 | 4.0 | 9.0 | 0.00 | 0.00 | 0.00 | 39 | 1015.2 |
| 20260904153536 | 92 | 203 | 6.0 | 12.0 | 0.00 | 0.00 | 0.00 | 39 | 1015.2 |
| 20260904152516 | 93 | 203 | 7.0 | 12.0 | 0.00 | 0.00 | 0.00 | 38 | 1015.1 |
| 20260904151516 | 94 | 225 | 6.0 | 12.0 | 0.00 | 0.00 | 0.00 | 37 | 1015.1 |
| 20260904150517 | 94 | 248 | 4.0 | 11.0 | 0.00 | 0.00 | 0.00 | 36 | 1015.0 |
| 20260904145517 | 94 | 203 | 6.0 | 13.0 | 0.00 | 0.00 | 0.00 | 36 | 1014.9 |
| 20260904144516 | 95 | 225 | 5.0 | 13.0 | 0.00 | 0.00 | 0.00 | 36 | 1014.9 |
| 20260904143516 | 94 | 248 | 3.0 | 7.0 | 0.00 | 0.00 | 0.00 | 37 | 1014.9 |
| 20260904142516 | 94 | 270 | 6.0 | 11.0 | 0.00 | 0.00 | 0.00 | 38 | 1015.0 |
| 20260904141516 | 94 | 270 | 5.0 | 9.0 | 0.00 | 0.00 | 0.00 | 38 | 1015.0 |
| 20260904140516 | 95 | 225 | 5.0 | 12.0 | 0.00 | 0.00 | 0.00 | 37 | 1015.0 |
| 20260904135516 | 95 | 225 | 5.0 | 13.0 | 0.00 | 0.00 | 0.00 | 38 | 1015.1 |
| 20260904134516 | 95 | 248 | 5.0 | 14.0 | 0.00 | 0.00 | 0.00 | 38 | 1015.1 |
| 20260904133516 | 96 | 270 | 6.0 | 11.0 | 0.00 | 0.00 | 0.00 | 38 | 1015.0 |
| 20260904132516 | 96 | 270 | 2.0 | 5.0 | 0.00 | 0.00 | 0.00 | 35 | 1015.2 |
| 20260904131516 | 94 | 203 | 7.0 | 13.0 | 0.00 | 0.00 | 0.00 | 40 | 1015.2 |
| 20260904130516 | 95 | 203 | 7.0 | 15.0 | 0.00 | 0.00 | 0.00 | 39 | 1015.2 |
| 20260904125516 | 95 | 90 | 3.0 | 7.0 | 0.00 | 0.00 | 0.00 | 38 | 1015.4 |
| 20260904124516 | 95 | 90 | 5.0 | 11.0 | 0.00 | 0.00 | 0.00 | 33 | 1015.4 |
| 20260904123516 | 96 | 68 | 5.0 | 10.0 | 0.00 | 0.00 | 0.00 | 29 | 1015.4 |
| 20260904122516 | 96 | 113 | 5.0 | 10.0 | 0.00 | 0.00 | 0.00 | 28 | 1015.5 |
| 20260904121516 | 96 | 90 | 5.0 | 11.0 | 0.00 | 0.00 | 0.00 | 31 | 1015.5 |
| 20260904120516 | 95 | 68 | 4.0 | 8.0 | 0.00 | 0.00 | 0.00 | 32 | 1015.7 |